Regional Weather Roundup
Issued by NWS Midland/Odessa, TX

Skip options and go directly to product.
Home | Oldest Version | Previous Version | Current Version | All | Text Only | Save Text | Print | Product List | Glossary Off

Skip product version selection by date and time.   

606
ASUS44 KMAF 201002
RWRMAF
MIDLAND AREA WEATHER ROUNDUP
NATIONAL WEATHER SERVICE MIDLAND TX
500 AM CDT MON OCT 20 2014

...IN SOUTHWEST TEXAS AND SOUTHEAST NEW MEXICO...

CITY           SKY/WX    TMP DP  RH WIND       PRES   REMARKS
ALPINE         CLOUDY    59  53  81 CALM      30.15S
ANDREWS        FAIR      54  53  96 CALM      30.08S
ARTESIA        NOT AVBL
BIG SPRING     PTCLDY    61  56  84 E5        30.08S
CARLSBAD       CLOUDY    62  58  86 N6        30.06S
DRYDEN           N/A     64  62  93 CALM      29.99S
FORT STOCKTON  CLOUDY    64  57  78 SE5       30.05S
GUAD PASS      CLOUDY    57  55  94 NE13      30.15S FOG
HOBBS          MOCLDY    54  54 100 CALM      30.10F
MARFA          CLOUDY    57  54  88 W3        30.13S
MIDLAND AIRPK  MOCLDY    60  57  90 E3        30.07S
MIDLAND INTL   MOCLDY    60  56  86 E3        30.06S
ODESSA         CLOUDY    59  55  87 E7        30.07S
PECOS          CLOUDY    61  56  83 NE6       30.03S
PRESIDIO       LGT RAIN  66  58  74 MISG      30.02S
SEMINOLE       MOCLDY    54  53  96 CALM      30.10S
SNYDER         MOCLDY    58  55  91 S3        30.07S
WINK           CLOUDY    61  57  87 NE5       30.04S
$$
...OTHER STATIONS IN TEXAS...

CITY           SKY/WX    TMP DP  RH WIND       PRES   REMARKS
ABILENE        MOCLDY    63  59  87 S6        30.05S
AMARILLO       CLEAR     55  54  96 SW7       30.08F FOG
AUSTIN         PTCLDY    58  57  97 CALM      30.02F
BROWNSVILLE    CLOUDY    72  69  90 CALM      29.90F
CORPUS CHRISTI MOCLDY    72  69  90 NE7       29.93F
DALLAS FTW     MOCLDY    60  54  80 CALM      30.05R
DEL RIO        MOCLDY    68  61  78 E9        29.98S
EL PASO        PTCLDY    58  55  90 NE14      30.07S
HOUSTON INT    CLEAR     61  58  90 N3        30.01S
LUBBOCK        PTCLDY    56  53  90 CALM      30.08F
SAN ANGELO     MOCLDY    59  55  87 NE6       30.04S
SAN ANTONIO    CLOUDY    69  65  86 E7        30.02S
WACO           CLEAR     58  56  93 CALM      30.05S
WICHITA FALLS  NOT AVBL
$$
...OTHER LOCATIONS IN NEW MEXICO...

CITY           SKY/WX    TMP DP  RH WIND       PRES   REMARKS
ALAMAGORDO     NOT AVBL
ALBUQUERQUE    PTCLDY    50  42  74 W6        30.18S
CANNON AFB     CLEAR     55  54  94 NW5       30.12F
CLOVIS         CLEAR     52  48  87 W7        30.14S
HOLLOMAN AFB   MOCLDY    56  56 100 NW10      30.09F
ROSWELL        CLOUDY    55  50  83 N3        30.09F
RUIDOSO        CLOUDY    50  48  93 CALM      30.24S
SANTA FE       CLOUDY    49  39  68 SE5       30.22R
TRUTH OR CONSE CLOUDY    54  51  90 NE3       30.14F
TUCUMCARI      PTCLDY    53  48  83 W7        30.10S
$$

USA.gov is the U.S. government's official web portal to all federal, state and local government web resources and services.